Regional Weather Roundup
Issued by NWS

Home | Current Version | Previous Version | Text Only | Print | Product List | Glossary Off
Versions: 1 2 3 4 5 6 7 8 9 10 11 12 13 14 15 16 17 18 19 20 21 22 23 24 25 26 27 28 29 30 31 32 33 34 35 36 37 38 39 40 41 42 43 44 45 46 47 48 49 50

000
ASUS43 KLOT 241408
RWRIL

ILLINOIS REGIONAL WEATHER ROUNDUP
NATIONAL WEATHER SERVICE CHICAGO/ROMEOVILLE IL
900 AM CDT TUE MAY 24 2016

NOTE: "FAIR" INDICATES FEW OR NO CLOUDS BELOW 12,000 FEET WITH NO
SIGNIFICANT WEATHER AND/OR OBSTRUCTIONS TO VISIBILITY.

* THESE STATIONS ARE NOT UNDER NWS QUALITY CONTROL. THEY ALSO MAY NOT
  REPORT WEATHER SUCH AS PRECIPITATION OR FOG.

ILZ001-002-007-009-015-016-024-241500-
NORTHWEST ILLINOIS

CITY           SKY/WX    TMP DP  RH WIND       PRES   REMARKS
MOLINE         SUNNY     73  58  59 S7        29.94S
STERLING*      SUNNY     73  58  59 VRB7      29.97S
SAVANNA*       SUNNY     72  57  59 S8        29.94S
$$

ILZ003-004-008-010-011-017-018-241500-
NORTH CENTRAL ILLINOIS

CITY           SKY/WX    TMP DP  RH WIND       PRES   REMARKS
ROCKFORD       MOSUNNY   73  55  53 SW10      29.98S
FREEPORT*      SUNNY     71  56  59 S8        29.97S
ROCHELLE*      SUNNY     73  56  55 SW14      29.99S
DE KALB*       SUNNY     71  56  58 S13       30.00S
$$

ILZ005-006-012>014-019>023-241500-
NORTHEAST ILLINOIS

CITY           SKY/WX    TMP DP  RH WIND       PRES   REMARKS
CHICAGO-OHARE  MOSUNNY   72  53  51 SW12      29.99F
CHICAGO-MIDWAY MOSUNNY   74  51  44 SW9       30.01S
AURORA         SUNNY     74  56  53 S12       30.00F
LANSING*       SUNNY     71  51  48 SW7       30.02F
JOLIET*        SUNNY     74  57  56 S6        30.01F
WAUKEGAN       SUNNY     72  54  53 SW9       29.98F
DUPAGE AIRPORT SUNNY     72  54  53 S8        30.00S
KANKAKEE*      SUNNY    N/A N/A N/A S8        30.04S
WHEELING       SUNNY     72  52  49 S8        30.00F
MORRIS*        SUNNY     75  54  47 S9        29.99F
ROMEOVILLE*    SUNNY     73  51  47 S10       30.01F
NORTHERLY ISL    N/A     72  48  42 S6          N/A
NORTHERLY ISL    N/A     72  48  42 S6          N/A
$$

LMZ740>746-241500-
SOUTHERN LAKE MICHIGAN

STATION/POSITION SKY/WX   TEMP    WIND        PRES    VSBY  WAVE
                          AIR SEA DIR/SP/G                  HT/PER
                          (F)     (DEG/KT/KT) (MB)    (MI)  (FT/S)
SOUTHERN BUOY              51 47  180/  8/  8 1015.8R         1
WILMETTE HARBOR            63 54  180/  4/  6   N/A           1
HARRISON CRIB              67     190/ 14/ 15   N/A
BURNHAM HARBOR             73     190/  5/  9   N/A
CALUMET HARBOR             65     190/  5/  8 1015.9R
BURNS HARBOR               68     190/ 11/ 15 1016.9R
MICHIGAN CITY              69     180/  7/  8   N/A
MICHIGAN CITY 6N           62 56  190/  4/  4   N/A           1
ST. JOSEPH                 61 57  220/  6/  6   N/A           1/ 2
$$

ILZ025>027-034>036-040-047-049-050-058-095>099-241500-
WEST-CENTRAL ILLINOIS

CITY           SKY/WX    TMP DP  RH WIND       PRES   REMARKS
QUINCY         SUNNY     72  58  61 S7        29.98R
GALESBURG*     SUNNY     72  59  64 S7        29.97R
MACOMB*        SUNNY     73  58  60 S8        30.00S
JACKSONVILLE*  SUNNY     74  56  55 S12       30.00R
PITTSFIELD*    SUNNY     71  58  64 S9        30.00S
$$

ILZ028>032-037-038-041>044-048-051>054-059>061-241500-
CENTRAL ILLINOIS

CITY           SKY/WX    TMP DP  RH WIND       PRES   REMARKS
PONTIAC        SUNNY     77  55  45 S10       30.02F
BLOOMINGTON    SUNNY     75  57  53 S9        30.03F
DECATUR        SUNNY     74  56  53 SW8       30.03F
PEORIA         SUNNY     70  56  61 S6        30.00F
LACON*         SUNNY     71  55  55 SW7       29.99F
LINCOLN*       SUNNY     74  58  56 S6        30.01F
SPRINGFIELD    SUNNY     76  57  51 S9        30.00F
TAYLORVILLE    SUNNY     73  57  57 S8        30.02F
$$

ILZ033-039-045-046-055>057-062-063-241500-
EAST-CENTRAL ILLINOIS

CITY           SKY/WX    TMP DP  RH WIND       PRES   REMARKS
CHAMPAIGN      SUNNY     76  51  41 S10       30.04S
RANTOUL*       MOSUNNY   77  53  42 S8        30.04F
MATTOON        SUNNY     70  53  54 S7        30.06R
PARIS*         PTSUNNY   72  53  50 S5        30.07S
$$

ILZ079-100>102-241500-
SOUTHWEST ILLINOIS

CITY           SKY/WX    TMP DP  RH WIND       PRES   REMARKS
ALTON          CLOUDY    72  57  60 S14       30.01S
CAHOKIA*       CLOUDY    70  60  70 S5        30.01S
SPARTA*        CLOUDY    69  59  69 SE3       30.05S
$$

ILZ064>066-069>071-074>076-080>082-084>086-088>090-092>094-241500-
SOUTH-CENTRAL ILLINOIS

CITY           SKY/WX    TMP DP  RH WIND       PRES   REMARKS
CARBONDALE     CLOUDY    68  60  75 S6        30.06R
CAIRO*         CLOUDY    69  61  77 SE3       30.06R
EFFINGHAM*     SUNNY     71  58  62 SE5       30.06F
MARION         PTSUNNY   70  61  73 SE6       30.06R
MT. VERNON     CLOUDY    72  57  60 S5        30.06S
CENTRALIA*     CLOUDY    69  60  74 S7        30.04R
SALEM*         CLOUDY    72  58  60 SE5       30.05R
METROPOLIS*    CLOUDY    70  61  73 CALM      30.07S
$$

ILZ067-068-072-073-078-083-087-091-241500-
SOUTHEAST ILLINOIS

CITY           SKY/WX    TMP DP  RH WIND       PRES   REMARKS
LAWRENCEVILLE  MOSUNNY   72  55  55 S6        30.08R
FLORA*         MOSUNNY   70  58  65 S6        30.06S
FAIRFIELD*     MOSUNNY   72  57  59 S5        30.06R
HARRISBURG*    CLOUDY    71  60  68 CALM      30.07R
ROBINSON*      MOSUNNY   70  55  58 S5        30.08S
CARMI*         MOSUNNY   69  58  68 SE7       30.07S
$$

ABBREVIATIONS USED IN REMARKS
   TC - TEMPERATURE IN CELSIUS
  WCI - WIND CHILL INDEX
   HX - HEAT INDEX
  VSB - VISIBILITY
$$




USA.gov is the U.S. government's official web portal to all federal, state and local government web resources and services.